Vertical_Velocity
-3 -0 -1 1 4 -0 5 -6 -7 2 -4 -8 -1 2 1 5 2 -0 6 4 -5 -0 2 -5 -4 -4 -4 -3 -4 -2 -7 -1 0 -1 -7 -2 -3 -2
-5 3 -0 14 -1 8 -1 10 -3 4 -0 -1 -4 -5 7 3 1 3 -2 0 -2 1 1 -4 -1 3 1 3 -2 -2 1 -7 -1 -2 -4 1 -1 -3
5 17 8 -11 9 6 10 -6 -1 8 1 1 -2 -1 7 -1 4 3 0 -1 -0 6 -3 -1 1 -0 -1 4 -3 3 -1 -3 1 -3 -4 4 -0 -2
-7 6 -6 3 1 -9 6 0 -6 1 12 12 4 6 3 1 4 2 1 -0 -0 -1 0 -1 -4 -8 -3 -3 -5 -3 0 -1 -1 -1 -1 -7 0 -1
10 -22 2 7 -18 3 6 -2 -1 1 4 -1 16 -5 5 7 1 0 -1 0 2 2 2 1 -2 2 1 -2 2 4 -3 -4 -1 -2 8 -5 -3 -3
10 15 -0 -5 8 0 -1 3 -1 6 3 6 8 6 3 -1 -1 1 -2 0 -1 1 0 -2 -2 -1 -3 0 -1 -1 -4 -4 -0 -0 -3 -5 -3 -0
11 -12 -0 2 6 -3 3 -2 2 4 5 1 9 2 -2 -6 -0 2 2 1 0 -2 -3 0 3 2 -2 -3 2 3 -3 -6 -1 2 3 0 -1 -0
-10 -2 10 11 -9 -3 2 6 5 5 14 -3 1 -6 -3 -2 9 2 1 -2 -3 -1 1 2 -2 -1 -0 -0 -2 1 1 -1 -3 -0 -1 1 -1 -2
3 0 12 -4 15 4 -2 5 5 2 18 8 1 -2 -5 8 4 1 0 1 -1 0 4 -1 1 -3 2 -1 -3 -1 -0 -2 1 -2 1 -3 -2 3
-8 -6 -7 -2 -2 -2 5 11 9 -3 -3 17 -10 -3 -1 -3 3 3 -1 3 1 1 2 -0 -0 -2 2 0 -2 -2 -3 -2 -2 3 0 -0 -0 1
2 11 0 -13 -10 1 -5 6 -6 13 -12 2 6 -14 6 -7 -7 1 -2 -1 -0 -0 -1 -2 1 -0 -2 1 -2 -1 -2 -3 -4 -1 0 6 4 6
1 4 1 11 17 8 -6 -13 -5 0 -1 -6 -10 2 -3 2 -0 1 3 -2 4 -1 -3 -3 -1 -1 0 -1 -1 -0 -2 -2 3 3 2 -1 8 8
-1 -3 -2 2 4 6 4 6 -1 -12 5 -1 -0 0 -1 5 -0 0 1 -2 1 -3 -3 1 -1 1 -1 -3 1 -2 -4 -0 3 -2 -1 4 1 6
-3 -2 -2 -0 -1 4 2 2 2 16 -17 -5 -0 -2 0 3 5 5 1 1 -0 -2 -0 -1 -0 -1 -1 -1 -0 -0 3 -1 -4 -1 1 0 2 -1
4 1 1 3 -5 -1 2 10 2 -0 3 3 -1 -3 1 1 6 5 2 -1 -1 2 2 -0 -2 -2 -3 1 0 -3 1 -2 -5 -5 0 4 -0 0
-0 -2 1 2 6 1 0 4 -3 -0 7 7 6 -2 7 -1 0 3 3 0 2 2 1 0 -4 1 -0 -4 -3 3 -2 -3 -0 2 3 -0 -1 -1
-2 2 -0 -0 3 2 3 -5 2 4 2 -4 0 2 -9 -0 1 6 3 1 -1 -1 -2 2 1 -1 0 -3 2 -4 2 -1 5 -4 2 0 0 1
1 -1 1 2 3 3 5 7 -3 4 1 6 7 0 -2 2 1 2 -2 2 -0 1 1 1 -0 0 1 2 -3 3 -3 1 2 -4 1 1 2 2
0 -2 -3 2 2 2 2 5 1 3 6 3 2 2 4 -2 3 -2 3 0 1 1 1 -1 0 1 -1 -0 -2 -1 1 1 -0 -0 1 1 -0 0
5 2 -1 2 1 1 4 4 5 2 3 5 4 3 3 -4 -2 -7 -4 -1 3 -0 0 1 -4 -1 2 0 -0 1 -0 -1 -1 2 2 2 0 -1
0 3 4 0 0 1 2 1 3 -1 2 4 3 3 2 -0 -1 -1 -3 3 3 -0 -0 -1 7 0 -0 -1 2 0 -1 -1 -1 1 2 0 -2 -0
-1 1 -0 0 3 2 2 3 5 3 3 2 4 4 3 2 -2 0 -6 -3 -2 0 6 5 -0 -0 -2 1 3 1 0 -0 -0 -0 -1 -2 -1 -2
-2 -0 -0 0 0 -1 4 4 4 2 5 5 6 3 3 1 1 1 -2 -4 1 1 2 1 2 -1 0 1 2 0 -0 -0 2 2 1 2 -1 -4
Height
1517 1522 1523 1524 1524 1527 1526 1526 1532 1532 1529 1528 1529 1529 1528 1527 1526 1527 1528 1528 1528 1527 1524 1524 1523 1521 1519 1518 1517 1515 1513 1510 1508 1503 1500 1496 1494 1491
1512 1513 1515 1515 1518 1519 1521 1523 1523 1524 1522 1522 1522 1521 1520 1521 1521 1522 1523 1524 1522 1522 1519 1517 1516 1516 1515 1513 1512 1511 1510 1506 1503 1499 1496 1493 1489 1487
1505 1507 1508 1511 1512 1513 1515 1516 1517 1517 1515 1514 1514 1514 1512 1515 1515 1516 1517 1517 1517 1517 1515 1512 1512 1511 1510 1509 1508 1506 1504 1502 1501 1497 1494 1491 1488 1487
1497 1501 1500 1504 1504 1506 1507 1508 1508 1509 1508 1506 1506 1502 1506 1507 1508 1510 1512 1512 1513 1510 1511 1507 1508 1506 1505 1503 1503 1502 1502 1499 1497 1496 1494 1490 1487 1485
1490 1494 1496 1495 1498 1498 1499 1499 1500 1500 1499 1497 1494 1497 1498 1499 1502 1504 1507 1507 1507 1507 1506 1503 1501 1501 1499 1501 1500 1497 1496 1496 1495 1494 1491 1488 1486 1482
1484 1486 1486 1488 1487 1490 1490 1490 1490 1491 1489 1490 1488 1488 1491 1494 1497 1499 1501 1502 1502 1501 1500 1497 1496 1495 1497 1496 1495 1494 1493 1493 1494 1492 1490 1489 1487 1483
1477 1477 1479 1479 1480 1481 1481 1481 1481 1481 1480 1483 1482 1483 1485 1489 1490 1493 1496 1497 1496 1495 1494 1494 1493 1491 1491 1493 1494 1491 1488 1490 1491 1491 1491 1489 1487 1486
1470 1471 1471 1471 1471 1471 1471 1471 1472 1471 1470 1472 1476 1478 1484 1486 1488 1488 1490 1491 1490 1490 1489 1489 1488 1488 1489 1489 1489 1489 1487 1487 1489 1490 1490 1491 1487 1487
1461 1462 1461 1461 1462 1461 1462 1462 1460 1460 1462 1464 1468 1474 1478 1483 1484 1484 1484 1485 1485 1485 1485 1484 1485 1485 1486 1484 1484 1485 1484 1486 1487 1488 1490 1492 1490 1488
1458 1457 1458 1457 1456 1455 1456 1454 1454 1456 1460 1460 1463 1469 1473 1476 1478 1477 1479 1479 1479 1480 1480 1481 1480 1484 1483 1480 1480 1480 1482 1483 1488 1487 1488 1490 1490 1491
1452 1453 1453 1453 1452 1453 1453 1453 1454 1454 1457 1458 1459 1463 1467 1468 1471 1471 1471 1473 1473 1474 1475 1477 1477 1477 1479 1478 1477 1476 1478 1480 1483 1486 1488 1490 1491 1493
1450 1448 1449 1448 1447 1445 1446 1448 1450 1451 1452 1456 1458 1458 1460 1462 1464 1465 1464 1466 1466 1468 1471 1473 1474 1474 1474 1473 1474 1474 1476 1478 1481 1483 1486 1488 1490 1490
1444 1444 1445 1444 1444 1443 1443 1443 1444 1447 1448 1449 1451 1454 1455 1456 1457 1458 1458 1461 1462 1463 1466 1468 1469 1470 1470 1472 1472 1472 1473 1476 1477 1480 1484 1486 1488 1490
1439 1439 1438 1438 1438 1439 1438 1440 1443 1442 1442 1445 1446 1447 1451 1453 1452 1452 1453 1455 1456 1458 1461 1463 1464 1467 1466 1469 1472 1471 1471 1472 1476 1479 1480 1483 1485 1490
1431 1430 1430 1429 1431 1431 1433 1435 1434 1434 1435 1435 1439 1440 1445 1449 1447 1448 1449 1451 1453 1454 1454 1456 1459 1462 1463 1466 1466 1469 1470 1471 1473 1477 1480 1480 1481 1486
1424 1423 1422 1422 1422 1422 1425 1426 1425 1427 1427 1429 1432 1435 1437 1439 1441 1444 1445 1445 1448 1450 1451 1452 1455 1457 1458 1462 1465 1466 1468 1471 1471 1473 1475 1478 1479 1482
1417 1415 1414 1414 1414 1413 1414 1416 1418 1418 1419 1420 1424 1425 1428 1433 1436 1438 1438 1441 1442 1445 1448 1449 1449 1453 1455 1458 1460 1463 1466 1469 1469 1470 1473 1474 1476 1478
1410 1407 1406 1406 1405 1405 1406 1406 1407 1410 1412 1415 1417 1417 1421 1424 1428 1432 1434 1436 1439 1441 1443 1444 1446 1450 1452 1454 1458 1460 1462 1467 1467 1469 1472 1473 1475 1476
1403 1400 1398 1397 1397 1397 1398 1398 1398 1401 1403 1406 1408 1411 1414 1418 1423 1425 1428 1432 1434 1436 1437 1440 1443 1445 1449 1449 1453 1456 1459 1462 1464 1467 1469 1471 1472 1474
1395 1393 1391 1389 1388 1388 1388 1388 1388 1391 1393 1398 1401 1404 1407 1410 1413 1416 1421 1426 1429 1431 1434 1435 1439 1442 1444 1447 1451 1453 1455 1458 1461 1464 1466 1467 1468 1471
1389 1385 1383 1382 1380 1379 1379 1380 1381 1381 1385 1389 1393 1396 1399 1402 1406 1411 1416 1421 1424 1427 1429 1433 1436 1438 1441 1445 1448 1449 1452 1455 1459 1461 1463 1464 1466 1469
1382 1379 1376 1373 1371 1370 1370 1371 1372 1374 1375 1378 1382 1387 1391 1395 1399 1403 1408 1414 1419 1423 1427 1429 1430 1434 1438 1442 1444 1446 1449 1453 1455 1458 1460 1462 1464 1465
1375 1372 1369 1366 1364 1362 1362 1362 1363 1365 1367 1370 1373 1377 1383 1387 1392 1397 1402 1409 1413 1418 1421 1423 1426 1430 1434 1438 1441 1444 1447 1450 1452 1454 1456 1458 1460 1462